Weather History for KAFN - October, 2013

Change the Weather History Date:

Saturday, October 5, 2013

  Actual Average Record
Temperature  
Mean Temperature 60 °F -  
Max Temperature 64 °F 60 °F 82 °F (2007)
Min Temperature 55 °F 38 °F 24 °F (1996)
Degree Days  
Heating Degree Days 6    
Growing Degree Days 10 (Base 50)    
Moisture  
Dew Point 55 °F    
Average Humidity 87    
Maximum Humidity 100    
Minimum Humidity 67    
Precipitation  
Precipitation 0.01 in - - ()
Sea Level Pressure  
Sea Level Pressure 30.12 in    
Wind  
Wind Speed 1 mph (WNW)    
Max Wind Speed 4 mph    
Max Gust Speed -    
Visibility 9 miles    
Events Rain    
Averages and records for this station are not official NWS values.
T = Trace of Precipitation, MM = Missing Value Source: NWS Daily Summary

Daily Weather History Graph

Daily Weather History Graph

Search for Another Location

Airport or City:

Trip Planner

Search our weather history database for the weather conditions in past years. The results will help you decide how hot, cold, wet, or windy it might be!

Date:

Astronomy

Oct. 05, 2013 Rise Set
Actual Time 6:49 AM EDT 6:21 PM EDT
Civil Twilight 6:21 AM EDT 6:50 PM EDT
Nautical Twilight 5:48 AM EDT 7:22 PM EDT
Astronomical Twilight 5:15 AM EDT 7:55 PM EDT
Moon 7:27 AM EDT (10/5) 6:36 PM EDT (10/5)
Length of Visible Light 12h 28m
Length of Day
11h 31m
New Moon, 0% of the Moon is Illuminated
Oct 5
New Moon
Oct 11
First Quarter
Oct 18
Full
Oct 26
Last Quarter
Nov 3
New

Hourly Weather History & Observations

Time (EDT) Temp. Dew Point Humidity Pressure Visibility Wind Dir Wind Speed Gust Speed Precip Events Conditions
12:28 AM 55.4 °F 53.6 °F 94% 30.08 in 7.0 mi WSW 3.5 mph - N/A   Overcast
12:52 AM 55.9 °F 54.0 °F 93% 30.11 in 6.0 mi Calm Calm - N/A   Mostly Cloudy
1:52 AM 55.9 °F 55.0 °F 97% 30.11 in 5.0 mi Calm Calm - N/A   Overcast
2:24 AM 55.4 °F 53.6 °F 94% 30.08 in 6.0 mi Calm Calm - N/A   Overcast
2:47 AM 55.4 °F 55.4 °F 100% 30.08 in 7.0 mi Calm Calm - N/A   Overcast
2:52 AM 55.9 °F 55.0 °F 97% 30.10 in 8.0 mi Calm Calm - N/A   Overcast
3:14 AM 55.4 °F 55.4 °F 100% 30.08 in 6.0 mi Calm Calm - N/A   Overcast
3:52 AM 55.9 °F 55.0 °F 97% 30.10 in 6.0 mi Calm Calm - N/A   Overcast
4:52 AM 55.9 °F 54.0 °F 93% 30.10 in 7.0 mi Calm Calm - N/A   Overcast
5:52 AM 55.9 °F 55.0 °F 97% 30.12 in 9.0 mi Calm Calm - N/A   Overcast
6:52 AM 55.9 °F 54.0 °F 93% 30.12 in 10.0 mi Variable 3.5 mph - N/A   Overcast
7:02 AM 55.4 °F 53.6 °F 94% 30.10 in 9.0 mi Calm Calm - N/A   Mostly Cloudy
7:12 AM 55.4 °F 53.6 °F 94% 30.11 in 8.0 mi Calm Calm - N/A   Overcast
7:52 AM 55.9 °F 55.0 °F 97% 30.14 in 10.0 mi Calm Calm - N/A   Overcast
8:49 AM 57.2 °F 55.4 °F 94% 30.13 in 10.0 mi Variable 3.5 mph - N/A   Overcast
8:52 AM 57.0 °F 54.0 °F 89% 30.15 in 10.0 mi Calm Calm - N/A   Overcast
9:18 AM 57.2 °F 53.6 °F 88% 30.13 in 10.0 mi Calm Calm - N/A   Overcast
9:39 AM 59.0 °F 53.6 °F 82% 30.14 in 10.0 mi NNW 3.5 mph - N/A   Overcast
9:52 AM 59.0 °F 54.0 °F 83% 30.15 in 10.0 mi Calm Calm - N/A   Overcast
10:12 AM 60.8 °F 53.6 °F 77% 30.13 in 10.0 mi Calm Calm - N/A   Overcast
10:52 AM 62.1 °F 53.1 °F 72% 30.14 in 10.0 mi Calm Calm - N/A   Mostly Cloudy
11:04 AM 60.8 °F 53.6 °F 77% 30.12 in 10.0 mi Calm Calm - N/A   Mostly Cloudy
11:28 AM 62.6 °F 53.6 °F 72% 30.12 in 10.0 mi Calm Calm - N/A   Overcast
11:52 AM 63.0 °F 54.0 °F 72% 30.14 in 10.0 mi Calm Calm - N/A   Overcast
12:52 PM 64.0 °F 53.1 °F 67% 30.13 in 10.0 mi Calm Calm - N/A   Overcast
1:52 PM 64.9 °F 54.0 °F 68% 30.10 in 10.0 mi Calm Calm - N/A   Overcast
2:08 PM 64.4 °F 53.6 °F 68% 30.09 in 10.0 mi Calm Calm - N/A   Overcast
2:34 PM 64.4 °F 53.6 °F 68% 30.09 in 10.0 mi Calm Calm - N/A   Overcast
2:52 PM 64.0 °F 55.0 °F 73% 30.10 in 10.0 mi Calm Calm - N/A   Overcast
3:52 PM 64.0 °F 55.0 °F 73% 30.11 in 10.0 mi Calm Calm - N/A   Overcast
4:52 PM 62.1 °F 55.9 °F 80% 30.12 in 10.0 mi Calm Calm - N/A   Overcast
5:52 PM 61.0 °F 55.9 °F 83% 30.12 in 10.0 mi Calm Calm - N/A   Overcast
6:37 PM 60.8 °F 55.4 °F 82% 30.12 in 10.0 mi Calm Calm - N/A   Overcast
6:52 PM 59.0 °F 55.9 °F 90% 30.12 in 10.0 mi Calm Calm - N/A   Overcast
7:06 PM 59.0 °F 55.4 °F 88% 30.11 in 10.0 mi Calm Calm - N/A   Overcast
7:52 PM 59.0 °F 55.9 °F 90% 30.14 in 10.0 mi Calm Calm - N/A   Overcast
8:52 PM 59.0 °F 55.9 °F 90% 30.14 in 9.0 mi Calm Calm - 0.00 in   Overcast
9:21 PM 59.0 °F 55.4 °F 88% 30.14 in 10.0 mi Calm Calm - N/A   Overcast
9:52 PM 59.0 °F 55.9 °F 90% 30.16 in 9.0 mi Calm Calm - N/A   Overcast
10:20 PM 57.2 °F 55.4 °F 94% 30.14 in 6.0 mi Calm Calm - N/A   Overcast
10:52 PM 57.9 °F 55.9 °F 93% 30.15 in 7.0 mi Calm Calm - 0.00 in Rain Light Rain
11:01 PM 57.2 °F 55.4 °F 94% 30.13 in 8.0 mi Calm Calm - 0.00 in   Overcast
11:41 PM 57.2 °F 55.4 °F 94% 30.14 in 9.0 mi Calm Calm - 0.00 in   Overcast
11:52 PM 57.9 °F 55.9 °F 93% 30.16 in 8.0 mi Calm Calm - 0.01 in   Overcast